Location: Voyageurs National Park
(48.5020°N, 92.9292°W)
Time: 09:50:18
(UTC-06:00)

CENTAUR R/B - Pass Details

Date: 19 January 2018
Orbit: 817 x 1371 km, 63.5° (Epoch: 22 February)

Event Time Altitude Azimuth Distance (km) Brightness Sun altitude
Exits shadow 05:17:24 39° 326° (NW) 1,546 3.2 -25.7°
Maximum altitude 05:17:37 39° 330° (NNW) 1,549 3.3 -25.7°
Drops below altitude 10° 05:24:27 10° 38° (NE) 3,106 5.5 -24.5°
Sets 05:27:37 0° 46° (NE) 4,157 6.4 -24.0°
